Time,TemperatureF,DewpointF,PressureIn,WindDirection,WindDirectionDegrees,WindSpeedMPH,WindSpeedGustMPH,Humidity,HourlyPrecipIn,Conditions,Clouds,dailyrainin,SoftwareType,DateUTC
2013-10-22 00:12:00,62.0,47.0,30.02,West,264,1.0,1.0,57,0.00,,,0.00,,2013-10-22 07:12:00,
2013-10-22 00:22:00,61.0,47.0,30.02,West,264,0.0,1.0,59,0.00,,,0.00,,2013-10-22 07:22:00,
2013-10-22 00:42:00,61.0,47.0,30.02,West,264,0.0,1.0,59,0.00,,,0.00,,2013-10-22 07:42:00,
2013-10-22 00:52:00,61.0,47.0,30.02,West,264,1.0,1.0,59,0.00,,,0.00,,2013-10-22 07:52:00,
2013-10-22 01:12:00,61.0,47.0,30.03,West,264,0.0,1.0,60,0.00,,,0.00,,2013-10-22 08:12:00,
2013-10-22 01:22:00,61.0,47.0,30.03,West,264,1.0,1.0,59,0.00,,,0.00,,2013-10-22 08:22:00,
2013-10-22 01:52:00,59.0,46.0,30.03,West,264,0.0,1.0,61,0.00,,,0.00,,2013-10-22 08:52:00,
2013-10-22 02:11:00,58.0,46.0,30.03,West,264,0.0,1.0,64,0.00,,,0.00,,2013-10-22 09:11:00,
2013-10-22 02:21:00,58.0,46.0,30.03,West,264,1.0,1.0,64,0.00,,,0.00,,2013-10-22 09:21:00,
2013-10-22 02:43:00,58.0,46.0,30.03,West,264,0.0,1.0,64,0.00,,,0.00,,2013-10-22 09:43:00,
2013-10-22 02:53:00,57.0,45.0,30.03,West,264,1.0,1.0,65,0.00,,,0.00,,2013-10-22 09:53:00,
2013-10-22 03:13:00,58.0,46.0,30.03,West,264,0.0,1.0,64,0.00,,,0.00,,2013-10-22 10:13:00,
2013-10-22 03:23:00,58.0,45.0,30.02,West,264,0.0,0.0,63,0.00,,,0.00,,2013-10-22 10:23:00,
2013-10-22 03:43:00,57.0,45.0,30.02,West,264,1.0,1.0,65,0.00,,,0.00,,2013-10-22 10:43:00,
2013-10-22 03:53:00,57.0,46.0,30.02,West,264,0.0,0.0,66,0.00,,,0.00,,2013-10-22 10:53:00,
2013-10-22 04:11:00,57.0,45.0,30.02,West,264,0.0,1.0,65,0.00,,,0.00,,2013-10-22 11:11:00,
2013-10-22 04:22:00,57.0,46.0,30.02,West,264,0.0,0.0,66,0.00,,,0.00,,2013-10-22 11:22:00,
2013-10-22 04:52:00,56.0,46.0,30.02,West,264,0.0,0.0,68,0.00,,,0.00,,2013-10-22 11:52:00,
2013-10-22 05:11:00,56.0,46.0,30.02,West,264,0.0,1.0,68,0.00,,,0.00,,2013-10-22 12:11:00,
2013-10-22 05:22:00,56.0,44.0,30.02,West,264,0.0,1.0,65,0.00,,,0.00,,2013-10-22 12:22:00,
2013-10-22 05:42:00,57.0,45.0,30.02,West,264,0.0,1.0,65,0.00,,,0.00,,2013-10-22 12:42:00,
2013-10-22 05:52:00,56.0,45.0,30.02,West,264,0.0,1.0,67,0.00,,,0.00,,2013-10-22 12:52:00,
2013-10-22 06:11:00,56.0,45.0,30.03,West,264,1.0,1.0,67,0.00,,,0.00,,2013-10-22 13:11:00,
2013-10-22 06:21:00,56.0,46.0,30.03,West,264,0.0,1.0,68,0.00,,,0.00,,2013-10-22 13:21:00,
2013-10-22 06:42:00,56.0,46.0,30.03,West,264,0.0,1.0,68,0.00,,,0.00,,2013-10-22 13:42:00,
2013-10-22 06:53:00,57.0,46.0,30.03,West,264,0.0,1.0,67,0.00,,,0.00,,2013-10-22 13:53:00,
2013-10-22 07:11:00,58.0,46.0,30.03,West,264,0.0,1.0,64,0.00,,,0.00,,2013-10-22 14:11:00,
2013-10-22 07:21:00,59.0,46.0,30.03,West,264,0.0,0.0,61,0.00,,,0.00,,2013-10-22 14:21:00,
2013-10-22 08:12:00,59.0,44.0,30.03,NNE,32,0.0,2.0,58,0.00,,,0.00,,2013-10-22 15:12:00,
2013-10-22 10:12:00,65.0,47.0,30.05,SW,221,1.0,2.0,53,0.00,,,0.00,,2013-10-22 17:12:00,
2013-10-22 10:22:00,67.0,48.0,30.05,SW,221,1.0,2.0,51,0.00,,,0.00,,2013-10-22 17:22:00,
2013-10-22 10:52:00,67.0,47.0,30.06,WSW,240,1.0,3.0,49,0.00,,,0.00,,2013-10-22 17:52:00,
2013-10-22 11:12:00,69.0,47.0,30.05,SW,232,1.0,3.0,46,0.00,,,0.00,,2013-10-22 18:12:00,
2013-10-22 11:22:00,71.0,47.0,30.05,SSW,200,1.0,3.0,43,0.00,,,0.00,,2013-10-22 18:22:00,
2013-10-22 12:12:00,76.0,47.0,30.05,South,186,1.0,3.0,36,0.00,,,0.00,,2013-10-22 19:12:00,
2013-10-22 12:22:00,77.0,48.0,30.04,WSW,244,1.0,3.0,36,0.00,,,0.00,,2013-10-22 19:22:00,
2013-10-22 12:42:00,77.0,49.0,30.04,SW,225,2.0,4.0,37,0.00,,,0.00,,2013-10-22 19:42:00,
2013-10-22 12:52:00,77.0,49.0,30.04,WNW,298,2.0,3.0,37,0.00,,,0.00,,2013-10-22 19:52:00,
2013-10-22 13:11:00,77.0,49.0,30.03,WNW,283,2.0,5.0,37,0.00,,,0.00,,2013-10-22 20:11:00,
2013-10-22 13:22:00,77.0,49.0,30.03,WNW,288,2.0,4.0,38,0.00,,,0.00,,2013-10-22 20:22:00,
2013-10-22 13:42:00,77.0,49.0,30.03,WNW,286,2.0,5.0,37,0.00,,,0.00,,2013-10-22 20:42:00,
2013-10-22 13:52:00,77.0,48.0,30.02,WNW,298,2.0,4.0,36,0.00,,,0.00,,2013-10-22 20:52:00,
2013-10-22 14:12:00,78.0,48.0,30.02,West,262,2.0,5.0,35,0.00,,,0.00,,2013-10-22 21:12:00,
2013-10-22 14:22:00,79.0,48.0,30.01,WSW,255,1.0,5.0,34,0.00,,,0.00,,2013-10-22 21:22:00,
2013-10-22 14:44:00,80.0,48.0,30.01,West,271,2.0,4.0,33,0.00,,,0.00,,2013-10-22 21:44:00,
2013-10-22 14:54:00,80.0,47.0,30.01,WSW,242,2.0,4.0,31,0.00,,,0.00,,2013-10-22 21:54:00,
2013-10-22 15:14:00,80.0,46.0,30.00,WNW,302,2.0,6.0,30,0.00,,,0.00,,2013-10-22 22:14:00,
2013-10-22 15:24:00,80.0,46.0,30.00,WNW,294,2.0,7.0,30,0.00,,,0.00,,2013-10-22 22:24:00,
2013-10-22 15:43:00,81.0,47.0,30.00,West,265,2.0,4.0,30,0.00,,,0.00,,2013-10-22 22:43:00,
2013-10-22 15:54:00,80.0,46.0,30.00,SW,233,2.0,5.0,30,0.00,,,0.00,,2013-10-22 22:54:00,
2013-10-22 16:12:00,80.0,46.0,30.00,WSW,241,1.0,5.0,30,0.00,,,0.00,,2013-10-22 23:12:00,
2013-10-22 16:23:00,80.0,46.0,30.00,SW,230,1.0,4.0,30,0.00,,,0.00,,2013-10-22 23:23:00,
2013-10-22 16:43:00,80.0,45.0,29.99,West,281,1.0,3.0,29,0.00,,,0.00,,2013-10-22 23:43:00,
2013-10-22 16:53:00,79.0,45.0,29.99,West,269,1.0,5.0,30,0.00,,,0.00,,2013-10-22 23:53:00,
2013-10-22 17:11:00,78.0,46.0,29.99,SW,226,2.0,4.0,32,0.00,,,0.00,,2013-10-23 00:11:00,
2013-10-22 17:22:00,77.0,48.0,29.98,WSW,255,1.0,4.0,36,0.00,,,0.00,,2013-10-23 00:22:00,
2013-10-22 17:42:00,76.0,50.0,29.98,WSW,242,2.0,3.0,40,0.00,,,0.00,,2013-10-23 00:42:00,
2013-10-22 17:52:00,75.0,49.0,29.98,WNW,282,1.0,3.0,40,0.00,,,0.00,,2013-10-23 00:52:00,
2013-10-22 18:11:00,74.0,47.0,29.98,West,278,1.0,2.0,39,0.00,,,0.00,,2013-10-23 01:11:00,
2013-10-22 18:23:00,72.0,47.0,29.98,West,278,1.0,2.0,41,0.00,,,0.00,,2013-10-23 01:23:00,
2013-10-22 18:42:00,71.0,46.0,29.98,West,278,0.0,1.0,41,0.00,,,0.00,,2013-10-23 01:42:00,
2013-10-22 18:52:00,69.0,44.0,29.98,West,278,1.0,1.0,41,0.00,,,0.00,,2013-10-23 01:52:00,
2013-10-22 19:11:00,68.0,43.0,29.98,West,278,0.0,1.0,40,0.00,,,0.00,,2013-10-23 02:11:00,
2013-10-22 19:22:00,68.0,43.0,29.98,West,278,1.0,1.0,41,0.00,,,0.00,,2013-10-23 02:22:00,
2013-10-22 19:42:00,68.0,44.0,29.98,West,278,1.0,1.0,42,0.00,,,0.00,,2013-10-23 02:42:00,
2013-10-22 19:53:00,67.0,43.0,29.98,West,278,1.0,1.0,41,0.00,,,0.00,,2013-10-23 02:53:00,
2013-10-22 20:11:00,67.0,42.0,29.98,West,278,1.0,1.0,40,0.00,,,0.00,,2013-10-23 03:11:00,
2013-10-22 20:22:00,67.0,42.0,29.98,West,278,1.0,1.0,40,0.00,,,0.00,,2013-10-23 03:22:00,
2013-10-22 20:44:00,66.0,42.0,29.98,West,278,1.0,2.0,41,0.00,,,0.00,,2013-10-23 03:44:00,
2013-10-22 20:55:00,66.0,43.0,29.98,West,278,0.0,1.0,44,0.00,,,0.00,,2013-10-23 03:55:00,
2013-10-22 21:14:00,65.0,43.0,29.99,West,278,0.0,1.0,44,0.00,,,0.00,,2013-10-23 04:14:00,
2013-10-22 21:24:00,65.0,43.0,29.99,West,278,0.0,1.0,45,0.00,,,0.00,,2013-10-23 04:24:00,
2013-10-22 21:44:00,64.0,42.0,29.99,West,278,1.0,1.0,45,0.00,,,0.00,,2013-10-23 04:44:00,
2013-10-22 21:54:00,64.0,43.0,29.99,West,278,0.0,0.0,47,0.00,,,0.00,,2013-10-23 04:54:00,
2013-10-22 22:13:00,64.0,44.0,30.00,West,278,0.0,1.0,49,0.00,,,0.00,,2013-10-23 05:13:00,
2013-10-22 22:22:00,64.0,45.0,30.00,West,278,1.0,1.0,51,0.00,,,0.00,,2013-10-23 05:22:00,
2013-10-22 22:52:00,63.0,45.0,30.01,West,278,1.0,1.0,51,0.00,,,0.00,,2013-10-23 05:52:00,
2013-10-22 23:12:00,63.0,45.0,30.00,West,278,1.0,2.0,52,0.00,,,0.00,,2013-10-23 06:12:00,
2013-10-22 23:22:00,62.0,45.0,30.00,North,355,2.0,2.0,54,0.00,,,0.00,,2013-10-23 06:22:00,
2013-10-22 23:52:00,61.0,47.0,30.00,North,360,1.0,2.0,59,0.00,,,0.00,,2013-10-23 06:52:00,